Weather Roundup
Issued by NWS Springfield, MO

Home | Current Version | Previous Version | Text Only | Print | Product List | Glossary On
Versions: 1 2 3 4 5 6 7 8 9 10 11 12 13 14 15 16 17 18 19 20 21 22 23 24 25 26 27 28 29 30 31 32 33 34 35 36 37 38 39 40 41 42 43 44 45 46 47 48 49 50
000
NZUS99 KSGF 221207
HRRSGF

HOURLY WEATHER
NATIONAL WEATHER SERVICE SPRINGFIELD MO
700 AM CDT FRI AUG 22 2014

......SGF CWA......

CITY           SKY/WX    TMP DP  RH WIND       PRES   REMARKS
SPRINGFIELD    CLEAR     74  70  87 S10       30.01S
6HR MIN TEMP:  73; 6HR MAX TEMP:  78;

JOPLIN         CLEAR     78  69  73 S14       29.99R
6HR MIN TEMP:  78; 6HR MAX TEMP:  80;

WEST PLAINS    CLEAR     73  69  87 SW5       30.06R
6HR MIN TEMP:  71; 6HR MAX TEMP:  76;

ROLLA          CLEAR     73  69  87 S10       29.99R
6HR MIN TEMP:  72; 6HR MAX TEMP:  78; 6HR PCP: TRACE;

OSAGE BEACH    CLEAR     73  68  83 S5        29.98S
BRANSON        PTCLDY    75  70  83 CALM      30.05R

......SURROUNDING SGF CWA......

CITY           SKY/WX    TMP DP  RH WIND       PRES   REMARKS
CHANUTE        CLEAR     76  69  79 S13       29.95S
PARSONS        CLEAR     76  69  79 S6        29.97R
COFFEYVILLE    CLEAR     78  70  76 S14       29.95S
EMPORIA        CLEAR     75  69  81 S16       29.91F
GROVE OK       CLEAR     79  70  73 S6        30.01R
ROGERS AR      PTCLDY    76  69  79 S10       30.06R
SILOAM SPRINGS CLEAR     75  64  69 S9        30.05R
HARRISON AR    CLEAR     75  70  84 SE5       30.05R
NEAR YELLVILLE CLEAR     72  66  83 CALM      30.04R

......KANSAS AND MISSOURI......

CITY           SKY/WX    TMP DP  RH WIND       PRES   REMARKS
KANSAS CTY INT MOCLDY    77  71  82 CALM      29.93R
DOWNTOWN KC    CLEAR     80  70  71 S8        29.91R
COLUMBIA       PTCLDY    74  71  91 S6        29.97R
SEDALIA        PTCLDY    78  70  76 SW13      29.96R
ST JOSEPH      MOCLDY    75  73  93 NW5       29.92R
ST LOUIS       PTCLDY    80  70  71 W9        29.98R
SPIRIT OF STL  PTCLDY    74  69  85 W3        29.97R
KIRKSVILLE     LGT RAIN  75  73  93 CALM      30.01R FOG
WICHITA        PTCLDY    77  66  68 S10       29.91S
TOPEKA         MOCLDY    81  72  74 S8        29.89S
OLATHE         CLEAR     76  70  82 S10       29.92R

......TENNESSEE......

CITY           SKY/WX    TMP DP  RH WIND       PRES   REMARKS
MEMPHIS        PTCLDY    77  71  82 SW3       30.08R
NASHVILLE      CLOUDY    75  73  93 CALM      30.09R

......ARKANSAS.......

CITY           SKY/WX    TMP DP  RH WIND       PRES   REMARKS
FAYETTEVILLE   PTCLDY    76  69  79 SW7       30.05R
FT SMITH       CLEAR     76  73  91 NE5       30.02R
LITTLE ROCK    PTCLDY    76  72  87 SW6       30.06R

......OKLAHOMA.......

CITY           SKY/WX    TMP DP  RH WIND       PRES   REMARKS
TULSA          CLEAR     80  69  69 S10       29.96R
PONCA CITY     MOCLDY    80  66  62 S8        29.94R
MCALESTER      CLEAR     79  71  76 S8        30.02R
OKLAHOMA CITY  PTCLDY    78  64  61 S9        29.98R

......IOWA............

CITY           SKY/WX    TMP DP  RH WIND       PRES   REMARKS
DES MOINES     CLOUDY    73  69  87 N5        29.89R
QUAD CITIES    CLOUDY    78  73  84 W6        29.90R

......ILLINOIS........

CITY           SKY/WX    TMP DP  RH WIND       PRES   REMARKS
QUINCY         CLOUDY    76  71  85 SW5       29.96R
CHICAGO        MOCLDY    74  70  87 SW3       29.92R



USA.gov is the U.S. government's official web portal to all federal, state and local government web resources and services.